TimeEET,TemperatureF,Dew PointF,Humidity,Sea Level PressureIn,VisibilityMPH,Wind Direction,Wind SpeedMPH,Gust SpeedMPH,PrecipitationIn,Events,Conditions,WindDirDegrees,DateUTC
12:20 AM,59.0,57.2,94,29.74,-9999.0,ESE,6.9,-,N/A,Rain,Light Rain,110,2012-10-28 22:20:00
12:50 AM,59.0,57.2,94,29.74,-9999.0,Variable,2.3,-,N/A,Rain,Light Rain,0,2012-10-28 22:50:00
1:20 AM,57.2,55.4,94,29.71,-9999.0,Variable,1.2,-,N/A,Rain,Light Rain,0,2012-10-28 23:20:00
1:50 AM,59.0,55.4,88,29.74,-9999.0,Variable,3.5,-,N/A,Rain,Light Rain,0,2012-10-28 23:50:00
2:20 AM,57.2,55.4,94,29.74,-9999.0,Calm,Calm,-,N/A,Rain,Light Rain,0,2012-10-29 00:20:00
2:50 AM,57.2,55.4,94,29.74,-9999.0,Variable,2.3,-,N/A,Rain,Light Rain,0,2012-10-29 00:50:00
3:20 AM,57.2,55.4,94,29.74,-9999.0,ENE,4.6,-,N/A,,Unknown,70,2012-10-29 01:20:00
3:50 AM,57.2,55.4,94,29.71,-9999.0,ESE,5.8,-,N/A,,Unknown,120,2012-10-29 01:50:00
4:20 AM,55.4,53.6,94,29.71,-9999.0,Variable,1.2,-,N/A,,Unknown,0,2012-10-29 02:20:00
4:50 AM,57.2,55.4,94,29.71,-9999.0,Variable,1.2,-,N/A,,Unknown,0,2012-10-29 02:50:00
5:20 AM,57.2,55.4,94,29.71,-9999.0,Calm,Calm,-,N/A,,Unknown,0,2012-10-29 03:20:00
5:50 AM,57.2,55.4,94,29.71,-9999.0,Variable,3.5,-,N/A,,Unknown,0,2012-10-29 03:50:00
6:20 AM,55.4,53.6,94,29.71,-9999.0,Variable,3.5,-,N/A,,Unknown,0,2012-10-29 04:20:00
6:50 AM,57.2,55.4,94,29.71,6.2,South,4.6,-,N/A,,Mostly Cloudy,180,2012-10-29 04:50:00
7:50 AM,59.0,55.4,88,29.71,6.2,South,4.6,-,N/A,,Mostly Cloudy,180,2012-10-29 05:50:00
8:50 AM,60.8,55.4,82,29.71,6.2,South,6.9,-,N/A,,Scattered Clouds,170,2012-10-29 06:50:00
9:50 AM,62.6,53.6,72,29.71,6.2,SSE,8.1,-,N/A,,Scattered Clouds,160,2012-10-29 07:50:00
10:50 AM,64.4,53.6,68,29.71,6.2,SSE,6.9,-,N/A,,Scattered Clouds,160,2012-10-29 08:50:00
11:50 AM,68.0,51.8,56,29.68,6.2,South,13.8,-,N/A,,Partly Cloudy,170,2012-10-29 09:50:00
12:50 PM,64.4,50.0,59,29.68,6.2,SW,6.9,-,N/A,,Scattered Clouds,220,2012-10-29 10:50:00
1:50 PM,64.4,44.6,49,29.65,6.2,SW,12.7,-,N/A,,Scattered Clouds,220,2012-10-29 11:50:00
2:50 PM,64.4,46.4,52,29.65,6.2,West,6.9,-,N/A,,Mostly Cloudy,260,2012-10-29 12:50:00
3:50 PM,62.6,44.6,52,29.65,6.2,WSW,9.2,-,N/A,,Mostly Cloudy,240,2012-10-29 13:50:00
4:50 PM,60.8,44.6,55,29.68,6.2,SW,9.2,-,N/A,,Scattered Clouds,220,2012-10-29 14:50:00
5:50 PM,59.0,41.0,51,29.68,6.2,WSW,6.9,-,N/A,,Mostly Cloudy,250,2012-10-29 15:50:00
6:50 PM,57.2,41.0,55,29.71,6.2,SW,8.1,-,N/A,,Mostly Cloudy,230,2012-10-29 16:50:00
7:50 PM,55.4,39.2,54,29.68,6.2,WSW,11.5,-,N/A,,Scattered Clouds,240,2012-10-29 17:50:00
8:20 PM,51.8,41.0,67,29.71,-9999.0,WSW,8.1,-,N/A,,Unknown,250,2012-10-29 18:20:00
8:50 PM,53.6,39.2,58,29.68,-9999.0,WSW,8.1,-,N/A,,Unknown,250,2012-10-29 18:50:00
9:20 PM,50.0,39.2,66,29.71,-9999.0,NNW,4.6,-,N/A,,Unknown,330,2012-10-29 19:20:00
9:50 PM,51.8,39.2,62,29.71,-9999.0,Variable,1.2,-,N/A,,Unknown,0,2012-10-29 19:50:00
10:20 PM,50.0,37.4,62,29.71,-9999.0,West,4.6,-,N/A,,Unknown,260,2012-10-29 20:20:00
10:50 PM,55.4,35.6,47,29.71,-9999.0,West,5.8,-,N/A,Rain,Light Rain,280,2012-10-29 20:50:00
11:20 PM,51.8,39.2,62,29.71,-9999.0,WNW,9.2,-,N/A,Rain,Light Rain,290,2012-10-29 21:20:00
11:50 PM,51.8,39.2,62,29.74,-9999.0,West,8.1,-,N/A,,Unknown,280,2012-10-29 21:50:00